GW0766 Weather Reports


time (UTC)temp
C
wind
direction
speed
KPH
gust
KPH
rain 1hr
cm
rain 24hr
cm
rain mn
cm
humidity
%
barometer
mb
20260906075916 25 297 1.6 4.8 0.00 0.00 0.00 74 1017.3
20260906071303 30 93 0.0 4.8 0.00 0.00 0.00 37 995.3
20260906055909 20 186 0.0 0.0 0.00 0.00 0.00 77 1016.8
20260906052242 23 295 0.0 0.0 0.00 0.00 0.00 57 994.8
20260906041548 23 284 0.0 0.0 0.00 0.00 0.00 57 994.5
20260906035914 18 188 0.0 0.0 0.00 0.00 0.00 74 1016.1
20260906025908 19 188 0.0 0.0 0.00 0.00 0.00 74 1016.0
20260906021655 23 293 0.0 0.0 0.00 0.00 0.00 61 994.5
20260906015905 20 188 0.0 0.0 0.00 0.00 0.00 72 1016.1
20260906001136 25 285 0.0 0.0 0.00 0.00 0.00 68 994.9
20260905235907 21 188 0.0 0.0 0.00 0.00 0.00 69 1016.3
20260905220141 25 307 0.0 0.0 0.00 0.00 0.00 64 995.3
20260905215933 23 188 0.0 0.0 0.00 0.00 0.00 64 1016.5
20260905201523 26 239 0.0 3.2 0.00 0.00 0.00 69 995.3
20260905195915 26 190 0.0 3.2 0.00 0.00 0.00 60 1016.5
20260905181419 27 173 0.0 0.0 0.00 0.00 0.00 68 994.7
20260905175915 28 209 3.2 6.4 0.00 0.00 0.00 46 1015.3
20260905171407 28 178 0.0 0.0 0.00 0.00 0.00 64 994.7
20260905165858 31 182 4.8 16.1 0.00 0.00 0.00 42 1014.5
20260905161055 29 86 0.0 3.2 0.00 0.00 0.00 63 994.5
20260905145909 33 238 8.0 17.7 0.00 0.00 0.00 37 1014.9
20260905141519 31 49 6.4 16.1 0.00 0.00 0.00 46 994.5
20260905125904 36 197 6.4 16.1 0.00 0.00 0.00 32 1015.4
20260905121523 31 90 1.6 14.5 0.00 0.00 0.00 49 995.3
20260905105907 33 205 3.2 12.9 0.00 0.00 0.00 42 1015.8
20260905101556 30 173 4.8 9.7 0.00 0.00 0.00 58 995.5
20260905090005 30 87 1.6 9.7 0.00 0.00 0.00 57 995.7
20260905085910 28 321 3.2 8.0 0.00 0.00 0.00 56 1016.2